EST,Max TemperatureF,Mean TemperatureF,Min TemperatureF,Max Dew PointF,MeanDew PointF,Min DewpointF,Max Humidity, Mean Humidity, Min Humidity, Max Sea Level PressureIn, Mean Sea Level PressureIn, Min Sea Level PressureIn, Max VisibilityMiles, Mean VisibilityMiles, Min VisibilityMiles, Max Wind SpeedMPH, Mean Wind SpeedMPH, Max Gust SpeedMPH,PrecipitationIn, CloudCover, Events, WindDirDegrees
2013-12-1,53,47,40,43,39,35,89,79,68,30.34,30.15,30.00,10,9,4,12,3,17,0.09,7,Rain,22
2013-12-2,50,43,35,39,36,33,92,79,66,29.99,29.94,29.88,10,6,2,10,3,12,0.00,6,,26
2013-12-3,53,43,33,39,34,30,92,71,50,29.99,29.91,29.86,10,6,2,10,4,13,0.00,3,,347
2013-12-4,53,42,31,45,35,28,92,73,54,30.14,30.09,30.01,10,7,2,10,3,12,0.00,5,,88
2013-12-5,59,54,48,55,52,46,93,87,80,30.13,30.05,29.94,10,4,0,13,8,17,T,8,Fog-Rain,170
2013-12-6,57,47,37,55,46,33,100,90,79,30.11,29.97,29.89,10,4,1,20,11,26,0.33,8,Rain,290
2013-12-7,41,36,31,34,30,17,92,76,59,30.48,30.23,30.06,10,8,2,21,10,25,0.23,6,Rain-Snow,349
2013-12-8,34,31,28,28,22,17,85,68,51,30.58,30.49,30.37,10,7,2,14,7,20,0.05,7,Rain-Snow,33
2013-12-9,46,39,32,43,34,28,96,89,82,30.35,30.13,29.91,9,3,1,20,10,29,0.25,8,Rain-Snow,23
2013-12-10,37,33,28,32,28,17,96,80,63,30.10,29.95,29.83,10,6,0,16,9,23,0.16,5,Fog-Snow,280
2013-12-11,34,30,25,17,15,13,63,55,47,30.30,30.22,30.13,10,10,10,20,11,25,0.00,2,,257
2013-12-12,30,26,21,15,8,4,62,48,34,30.32,30.24,30.15,10,10,10,18,10,23,0.00,1,,294
2013-12-13,35,27,18,18,11,4,63,50,36,30.32,30.18,30.12,10,10,10,23,10,31,0.00,4,,262
2013-12-14,42,32,22,39,20,15,89,76,63,30.50,30.34,29.82,10,4,1,30,13,40,0.52,7,Rain-Snow,58
2013-12-15,47,40,33,44,32,19,96,76,56,29.82,29.58,29.42,10,7,1,29,13,37,1.55,7,Rain,308
2013-12-16,33,27,20,20,11,7,63,50,36,30.22,30.04,29.82,10,10,10,23,10,28,0.00,2,,284
2013-12-17,35,28,20,32,22,10,96,76,55,30.23,30.04,29.90,10,5,1,18,8,23,0.36,8,Rain-Snow,37
2013-12-18,37,31,24,22,20,18,88,70,52,30.15,30.00,29.88,10,10,10,23,10,29,0.00,3,,310
2013-12-19,46,35,23,31,25,17,81,62,42,30.17,30.11,30.03,10,10,9,23,7,30,0.00,4,,237
2013-12-20,50,40,30,45,36,27,89,71,52,30.10,30.04,29.97,10,10,8,17,7,23,0.00,5,,210
2013-12-21,56,51,46,52,46,44,93,83,72,30.01,29.96,29.92,10,9,6,20,12,29,0.01,5,,217
2013-12-22,61,57,53,55,52,49,100,89,77,29.97,29.91,29.85,10,7,0,25,16,33,0.03,7,Fog-Rain,213
2013-12-23,57,49,41,54,49,33,100,91,82,30.12,29.98,29.88,10,7,0,22,7,25,0.38,8,Fog-Rain,301
2013-12-24,41,34,27,32,23,14,75,58,40,30.28,30.17,30.05,10,7,0,26,13,32,0.17,6,Fog-Snow,337
2013-12-25,28,24,20,13,9,7,62,52,42,30.51,30.45,30.30,10,10,10,24,8,28,0.00,4,,346
2013-12-26,39,32,25,28,22,14,82,66,50,30.42,30.26,30.14,10,10,10,18,5,24,0.00,5,,292
2013-12-27,42,33,24,22,20,16,81,59,37,30.34,30.29,30.25,10,10,10,18,7,23,0.00,2,,259
2013-12-28,52,39,26,36,29,21,82,60,38,30.27,30.16,30.07,10,10,9,20,8,25,0.00,2,,224
2013-12-29,55,47,38,52,40,31,96,81,65,30.05,29.71,29.35,10,6,1,24,9,32,1.56,6,Rain,233
2013-12-30,45,34,23,37,26,11,92,70,47,30.16,29.93,29.66,10,10,7,20,10,25,0.00,5,,305
2013-12-31,32,26,20,20,12,6,67,55,43,30.25,30.14,30.06,10,10,9,18,8,24,T,4,Snow,295